Regional Weather Roundup
Issued by NWS

Home | Current Version | Previous Version | Text Only | Print | Product List | Glossary Off
Versions: 1 2 3 4 5 6 7 8 9 10 11 12 13 14 15 16 17 18 19 20 21 22 23 24 25 26 27 28 29 30 31 32 33 34 35 36 37 38 39 40 41 42 43 44 45 46 47 48 49 50

763
ASUS43 KMKX 251700
RWRWI

WISCONSIN REGIONAL WEATHER ROUNDUP
NATIONAL WEATHER SERVICE MILWAUKEE/SULLIVAN WI
1200 PM CDT SUN JUN 25 2017

NOTE: "FAIR" INDICATES FEW OR NO CLOUDS BELOW 12,000 FEET WITH NO
SIGNIFICANT WEATHER AND/OR OBSTRUCTIONS TO VISIBILITY.

WIZ001-002-006>008-014>016-023>028-251800-
NORTHWEST WISCONSIN

CITY           SKY/WX    TMP DP  RH WIND       PRES   REMARKS
SUPERIOR ARPT  NOT AVBL
ASHLAND        CLOUDY    60  53  77 CALM      30.03F
HAYWARD        PTSUNNY   58  52  80 NW8       30.06R
SIREN          CLOUDY    55  53  91 NW10      30.10R
CUMBERLAND     LGT RAIN  55  54  94 NW16G23   30.08S
RICE LAKE      CLOUDY    58  54  86 W10G17    30.09S
CHETEK         NOT AVBL
LADYSMITH      CLOUDY    59  52  77 W9        30.08S
EAU CLAIRE     NOT AVBL
MENOMONIE      CLOUDY    58  52  81 W14G20    30.11S
NEW RICHMOND   CLOUDY    57  52  84 W14G20    30.12S
OSCEOLA        LGT RAIN  57  52  82 NW10      30.15R
$$

WIZ003>005-009-010-017-018-251800-
NORTH CENTRAL WISCONSIN

CITY           SKY/WX    TMP DP  RH WIND       PRES   REMARKS
MANITOWISH WTR MOSUNNY   60  51  69 CALM      30.02S
ARBOR VITAE    MOSUNNY   60  52  74 CALM      30.02S
WOODRUFF       MOSUNNY   60  52  74 CALM      30.02S
RHINELANDER    MOSUNNY   62  51  67 NW8       30.03F
EAGLE RIVER    PTSUNNY   61  48  62 NW7       30.02S
LAND O LAKES   SUNNY     62  50  63 N5        30.03F
PHILLIPS       CLOUDY    55  53  91 NW5       30.04S
TOMAHAWK       NOT AVBL
MEDFORD        CLOUDY    55  51  85 W8        30.07S FOG
MERRILL        RAIN      56  53  92 W9        30.06S
$$

WIZ029-030-035-036-043>047-251800-
CENTRAL WISCONSIN

CITY           SKY/WX    TMP DP  RH WIND       PRES   REMARKS
WAUSAU         CLOUDY    58  51  78 W10       30.04S
MOSINEE        CLOUDY    59  52  77 W12       30.07S
MARSHFIELD     CLOUDY    60  50  69 W10       30.06F
STEVENS POINT  CLOUDY    56  49  76 W10G16    30.08S
WAUPACA        PTSUNNY   64  51  62 W14G25    30.06R
WAUTOMA        CLOUDY    63  50  62 NW12G22   30.08S
WISC RAPIDS    PTSUNNY   63  51  65 NW12G18   30.09F
CAMP DOUGLAS   NOT AVBL
$$

WIZ011>013-019>022-031-037>040-048>050-251800-
NORTHEAST WISCONSIN

CITY           SKY/WX    TMP DP  RH WIND       PRES   REMARKS
ANTIGO         PTSUNNY   60  53  76 W10G16    30.04S
SHAWANO        CLOUDY    64  52  66 W6        30.02R
OCONTO         CLOUDY    63  50  61 W7        30.00R
STURGEON BAY     N/A     61  51  70 W8          N/A
GREEN BAY      CLOUDY    66  52  60 W13       30.01F
MANITOWOC      NOT AVBL
APPLETON       PTSUNNY   63  48  59 W13G22    30.02S
CLINTONVILLE   RAIN      61  50  67 W10G17    30.03S
OSHKOSH        MOSUNNY   66  52  60 W15G21    30.04R
$$

WIZ032>034-041-042-053>061-251800-
SOUTHWEST WISCONSIN

CITY           SKY/WX    TMP DP  RH WIND       PRES   REMARKS
LA CROSSE      PTSUNNY   69  52  54 W12       30.12S
SPARTA         CLOUDY    60  51  73 W13       30.12S
VIROQUA        CLOUDY    56  53  92 W8        30.14R
BOSCOBEL       CLOUDY    62  48  60 W12       30.14R
PRAIRIE DU CHI CLOUDY    59  47  64 W9G16     30.15R
PLATTEVILLE    CLOUDY    62  50  66 W18       30.15R
$$

WIZ056-057-062-063-064-067-068-251800-
SOUTH CENTRAL WISCONSIN

CITY           SKY/WX    TMP DP  RH WIND       PRES   REMARKS
REEDSBURG      CLOUDY    58  49  72 W10       30.11S
BARABOO/DELLS  CLOUDY    59  48  67 W10G16    30.10S
LONE ROCK      NOT AVBL
MINERAL POINT  CLOUDY    61  50  67 W17       30.13S
MADISON        PTSUNNY   61  49  64 NW9G17    30.10S
MIDDLETON      CLOUDY    63  51  64 W14       30.11S
WATERTOWN      PTSUNNY   64  52  64 W13G18    30.08R
MONROE         PTSUNNY   63  46  55 W13G21    30.12S
JANESVILLE     PTSUNNY   68  50  52 W15G21    30.10S
$$

WIZ051-052-058>065-066-070>072-251800-
SOUTHEAST WISCONSIN

CITY           SKY/WX    TMP DP  RH WIND       PRES   REMARKS
MILWAUKEE      PTSUNNY   68  48  48 W13G26    30.06S
WAUKESHA       MOSUNNY   64  48  55 W14G23    30.08S
MILWAUKEE/TIMM PTSUNNY   66  45  45 W17G26    30.07R
RACINE         MOSUNNY   68  47  46 W15G25    30.08S
KENOSHA        PTSUNNY   66  49  54 W16       30.08S
FOND DU LAC    PTSUNNY   67  50  54 W13G26    30.05R
SHEBOYGAN      PTSUNNY   65  52  62 W15       30.02S
WEST BEND      CLOUDY    64  50  59 W20       30.05S
JUNEAU         PTSUNNY   62  51  66 W9G17     30.08S
$$

LSZ147-162-251800-
LAKE SUPERIOR

STATION/POSITION TIME  TEMP    WIND        PRES    WAVE
                       AIR SEA DIR/SP/G            HT/PER
                 (UTC) (F)     (DEG/KT/KT) (MB)    (FT/S)
W MID LAKE BUOY  1550   45 39  320/  4/  4 1017.1R   0
DEVILS ISLAND    1600   53     220/  5/  6 1017.1R
SAXON HARBOR     1640   57     330/  4/  5 1016.6S
$$

LMZ867-665-643>646-251800-
LAKE MICHIGAN

STATION/POSITION TIME  TEMP    WIND        PRES    WAVE
                       AIR SEA DIR/SP/G            HT/PER
                 (UTC) (F)     (DEG/KT/KT) (MB)    (FT/S)
CHAMBERS ISLAND  1640   62     300/  5/  9 1015.2R
S GREEN BAY BUOY 1630   62     260/  4/  6 1015.8R
N MID LAKE BUOY  1550   56 57  320/  4/  6 1015.9R   1/ 3
NORTHPORT PIER   1640   60     300/  7/ 10 1015.6R
KEWAUNEE LAKESHO 1630   63     300/  7/ 11 1015.7R
SHEBOYGAN LAKESH 1600   63     290/ 16/ 20 1016.3R
PORT WASHINGTON  1640   69     280/  8/ 17 1017.9R
ATWATER BUOY     1509   63 58  270/ 14/ 17 1017.7R
MILWAUKEE LAKESH 1630   65     290/  9/ 12   N/A
S MID LAKE BUOY  1550   60 61  280/ 16/ 19 1018.0S   3/ 5
KENOSHA   LAKESH 1600   65     290/ 17/ 23 1018.3
$$

TC  - TEMPERATURE IN CELSIUS
VSB - VISIBILITY IN STATUTE MILES
WCI - WIND CHILL INDEX
HX  - HEAT INDEX





USA.gov is the U.S. government's official web portal to all federal, state and local government web resources and services.